TimeCST,TemperatureF,Dew PointF,Humidity,Sea Level PressureIn,VisibilityMPH,Wind Direction,Wind SpeedMPH,Gust SpeedMPH,PrecipitationIn,Events,Conditions,WindDirDegrees,DateUTC
12:53 AM,39.0,36.0,89,30.24,10.0,North,6.9,-,N/A,,Overcast,350,2013-01-26 06:53:00
1:53 AM,39.0,37.0,93,30.24,9.0,North,6.9,-,N/A,,Overcast,360,2013-01-26 07:53:00
2:53 AM,37.9,35.1,89,30.26,8.0,NNE,10.4,-,N/A,,Mostly Cloudy,30,2013-01-26 08:53:00
3:53 AM,35.1,33.1,92,30.27,8.0,NNE,9.2,-,N/A,,Mostly Cloudy,20,2013-01-26 09:53:00
4:53 AM,35.1,32.0,89,30.27,8.0,North,5.8,-,N/A,,Overcast,360,2013-01-26 10:53:00
5:53 AM,35.1,32.0,89,30.29,7.0,North,5.8,-,N/A,,Overcast,10,2013-01-26 11:53:00
6:53 AM,34.0,30.9,89,30.31,7.0,North,4.6,-,N/A,,Mostly Cloudy,360,2013-01-26 12:53:00
7:53 AM,34.0,32.0,92,30.31,5.0,Calm,Calm,-,N/A,,Overcast,0,2013-01-26 13:53:00
8:10 AM,35.6,32.0,87,30.31,5.0,Calm,Calm,-,N/A,,Overcast,0,2013-01-26 14:10:00
8:53 AM,36.0,33.1,89,30.33,6.0,Calm,Calm,-,N/A,,Overcast,0,2013-01-26 14:53:00
9:53 AM,41.0,33.1,73,30.34,8.0,Variable,4.6,-,N/A,,Mostly Cloudy,0,2013-01-26 15:53:00
10:53 AM,44.1,33.1,65,30.34,10.0,NE,4.6,-,N/A,,Overcast,40,2013-01-26 16:53:00
11:53 AM,46.9,34.0,61,30.32,10.0,Variable,4.6,-,N/A,,Mostly Cloudy,0,2013-01-26 17:53:00
12:53 PM,51.1,34.0,52,30.29,10.0,NNE,4.6,-,N/A,,Mostly Cloudy,20,2013-01-26 18:53:00
1:53 PM,52.0,34.0,50,30.28,10.0,NNE,5.8,-,N/A,,Mostly Cloudy,20,2013-01-26 19:53:00
2:53 PM,53.1,32.0,45,30.28,10.0,NNE,4.6,-,N/A,,Mostly Cloudy,20,2013-01-26 20:53:00
3:53 PM,53.1,32.0,45,30.28,10.0,ENE,3.5,-,N/A,,Scattered Clouds,60,2013-01-26 21:53:00
4:53 PM,48.0,33.1,56,30.29,10.0,NNE,5.8,-,N/A,,Scattered Clouds,20,2013-01-26 22:53:00
5:53 PM,45.0,33.1,63,30.29,10.0,NNE,6.9,-,N/A,,Scattered Clouds,30,2013-01-26 23:53:00
6:53 PM,44.1,33.1,65,30.30,10.0,NNE,5.8,-,N/A,,Mostly Cloudy,20,2013-01-27 00:53:00
7:53 PM,46.0,33.1,61,30.31,10.0,NE,5.8,-,N/A,,Mostly Cloudy,40,2013-01-27 01:53:00
8:53 PM,45.0,33.1,63,30.31,10.0,NE,4.6,-,N/A,,Mostly Cloudy,50,2013-01-27 02:53:00
9:53 PM,44.1,33.1,65,30.31,10.0,NE,4.6,-,N/A,,Mostly Cloudy,40,2013-01-27 03:53:00
10:53 PM,44.1,33.1,65,30.32,10.0,Calm,Calm,-,N/A,,Mostly Cloudy,0,2013-01-27 04:53:00
11:53 PM,42.1,33.1,70,30.31,10.0,ENE,5.8,-,N/A,,Mostly Cloudy,70,2013-01-27 05:53:00